Location: Unspecified
(42.9300°N, 71.1866°W)
Time: 09:58:32
(UTC-05:00)

Cosmos 1674 - Visible Passes

Search period start: 22 December 2014 00:00
Search period end: 01 January 2015 00:00
Orbit: 510 x 538 km, 82.5° (Epoch: 22 December)

Date Brightness Start Highest point End Pass type
(mag) Time Alt. Az. Time Alt. Az. Time Alt. Az.
26 Dec 5.5 06:39:04 10° NNE 06:41:36 17° ENE 06:44:08 10° ESE visible
27 Dec 5.6 06:26:55 10° NE 06:29:11 15° ENE 06:31:27 10° ESE visible
28 Dec 5.6 06:14:49 10° NE 06:16:44 13° ENE 06:18:40 10° E visible
29 Dec 5.8 06:02:47 10° NE 06:04:16 12° ENE 06:05:46 10° E visible
30 Dec 5.9 05:50:59 10° NE 05:51:47 11° ENE 05:52:35 10° E visible
